Date String (YYYY-MM-DD hh:mm:ss) UTC,Instrument flags,Ambient pressure (hPa),Sample flow (lpm),Bypass flow (lpm),Sample temperature (°C),Ambient temperature (°C),ASC tube jacket temperature (°C),LED temperature (°C),Box temperature (°C),Sample RH (%),Span deviation,Mass concentration (μg/m³),Mass concentration (μg/m³),Mass concentration (μg/m³)
DateTimeUTC,F1_M11,P_M11,Q1_M11,Q2_M11,T1_M11,T2_M11,T3_M11,T4_M11,T5_M11,U1_M11,ZSPAN_M11,X2_M11,X0_M11,X1_M11
2022-07-11 16:00:00,,0835.6,5.00,0.00,29.8,28.1,00.0,38.7,31.7,30.9,0000.0,0004.99,0012.14,0003.94
2022-07-11 16:01:00,,0835.6,5.00,0.00,29.8,28.2,00.0,38.7,31.7,30.9,0000.0,0004.99,0011.68,0003.96
2022-07-11 16:02:00,,0835.6,5.00,0.00,29.9,28.3,00.0,38.7,31.7,30.8,0000.0,0004.92,0011.23,0003.96
2022-07-11 16:03:00,,0835.6,5.01,0.00,29.9,28.4,00.0,38.7,31.7,30.8,0000.0,0004.90,0012.10,0003.97
2022-07-11 16:04:00,,0835.6,4.99,0.00,29.9,28.5,00.0,38.7,31.7,30.9,0000.0,0004.93,0011.94,0003.98
2022-07-11 16:05:00,,0835.6,4.99,0.00,29.9,28.6,00.0,38.7,31.8,30.9,0000.0,0004.95,0012.01,0003.99
2022-07-11 16:06:00,,0835.6,5.01,0.00,29.9,28.7,00.0,38.7,31.8,30.7,0000.0,0005.01,0012.49,0003.99
2022-07-11 16:07:00,,0835.6,5.00,0.00,29.9,28.8,00.0,38.7,31.8,30.4,0000.0,0005.01,0012.61,0004.00
2022-07-11 16:08:00,,0835.6,5.01,0.00,30.0,28.8,00.0,38.7,31.9,30.3,0000.0,0005.04,0012.55,0003.99
2022-07-11 16:09:00,,0835.6,5.00,0.00,30.0,28.9,00.0,38.7,31.9,30.5,0000.0,0005.07,0013.50,0003.98
2022-07-11 16:10:00,,0835.5,4.99,0.00,30.0,28.9,00.0,38.8,31.9,30.4,0000.0,0004.99,0013.10,0003.97
2022-07-11 16:11:00,,0835.6,4.99,0.00,30.0,29.0,00.0,38.8,32.0,30.3,0000.0,0004.97,0012.95,0003.97
2022-07-11 16:12:00,,0835.6,5.00,0.00,30.1,29.0,00.0,38.8,32.0,30.2,0000.0,0004.98,0012.91,0003.97
2022-07-11 16:13:00,,0835.6,5.00,0.00,30.1,29.0,00.0,38.8,32.0,30.1,0000.0,0004.96,0013.09,0003.97
2022-07-11 16:14:00,,0835.6,5.00,0.00,30.1,28.9,00.0,38.8,32.0,29.8,0000.0,0004.95,0012.42,0003.97
2022-07-11 16:15:00,,0835.6,5.01,0.00,30.1,28.2,00.0,38.8,31.9,29.9,0000.0,0004.92,0012.59,0003.96
2022-07-11 16:16:00,,0835.5,5.00,0.00,30.0,27.7,00.0,38.7,31.8,29.9,0000.0,0004.89,0012.65,0003.95
2022-07-11 16:17:00,,0835.5,4.98,0.00,29.9,27.6,00.0,38.7,31.6,29.9,0000.0,0004.83,0012.10,0003.96
2022-07-11 16:18:00,,0835.5,5.01,0.00,29.9,27.6,00.0,38.7,31.6,30.1,0000.0,0004.78,0011.19,0003.96
2022-07-11 16:19:00,,0835.5,4.99,0.00,29.8,27.7,00.0,38.7,31.6,30.2,0000.0,0004.75,0010.86,0003.97
2022-07-11 16:20:00,,0835.5,5.01,0.00,29.8,27.9,00.0,38.6,31.6,30.3,0000.0,0004.76,0010.22,0003.98
2022-07-11 16:21:00,,0835.5,4.99,0.00,29.8,28.0,00.0,38.6,31.6,30.4,0000.0,0004.78,0011.03,0003.99
2022-07-11 16:22:00,,0835.5,5.00,0.00,29.8,28.1,00.0,38.6,31.6,30.6,0000.0,0004.81,0011.73,0003.99
2022-07-11 16:23:00,,0835.5,5.00,0.00,29.8,28.2,00.0,38.6,31.6,30.4,0000.0,0004.81,0011.79,0003.99
2022-07-11 16:24:00,,0835.5,5.00,0.00,29.8,28.4,00.0,38.6,31.7,30.4,0000.0,0004.81,0011.71,0003.98
2022-07-11 16:25:00,,0835.5,5.00,0.00,29.8,28.5,00.0,38.6,31.7,30.4,0000.0,0004.83,0012.05,0003.97
2022-07-11 16:26:00,,0835.5,5.00,0.00,29.8,28.5,00.0,38.7,31.7,30.4,0000.0,0004.84,0013.19,0003.98
2022-07-11 16:27:00,,0835.5,5.01,0.00,29.9,28.6,00.0,38.7,31.8,30.4,0000.0,0004.84,0013.80,0003.98
2022-07-11 16:28:00,,0835.5,5.01,0.00,29.9,28.7,00.0,38.7,31.8,30.3,0000.0,0004.84,0014.00,0003.98
2022-07-11 16:29:00,,0835.5,5.00,0.00,29.9,28.8,00.0,38.7,31.8,30.3,0000.0,0004.88,0014.26,0003.98
2022-07-11 16:30:00,,0835.5,5.00,0.00,29.9,28.8,00.0,38.7,31.9,30.2,0000.0,0004.90,0014.55,0003.99
2022-07-11 16:31:00,,0835.5,4.99,0.00,30.0,28.9,00.0,38.7,31.9,30.3,0000.0,0004.88,0014.52,0003.98
2022-07-11 16:32:00,,0835.5,4.99,0.00,30.0,28.9,00.0,38.7,31.9,30.2,0000.0,0004.88,0014.37,0003.99
2022-07-11 16:33:00,,0835.5,5.00,0.00,30.0,28.9,00.0,38.7,31.9,30.2,0000.0,0004.87,0013.89,0004.00
2022-07-11 16:34:00,,0835.5,5.01,0.00,30.0,29.0,00.0,38.8,31.9,30.2,0000.0,0004.87,0014.39,0004.00
2022-07-11 16:35:00,,0835.6,5.00,0.00,30.0,29.0,00.0,38.8,32.0,30.2,0000.0,0004.86,0014.60,0004.01
2022-07-11 16:36:00,,0835.5,5.00,0.00,30.1,29.0,00.0,38.8,32.0,30.2,0000.0,0004.84,0013.59,0004.01
2022-07-11 16:37:00,,0835.5,5.00,0.00,30.1,28.5,00.0,38.7,31.9,30.2,0000.0,0004.87,0012.96,0004.00
2022-07-11 16:38:00,,0835.5,4.98,0.00,30.0,27.8,00.0,38.7,31.8,30.2,0000.0,0004.88,0014.43,0004.00
2022-07-11 16:39:00,,0835.5,5.00,0.00,30.0,27.6,00.0,38.7,31.7,30.2,0000.0,0004.90,0014.35,0004.01
2022-07-11 16:40:00,,0835.4,5.01,0.00,29.9,27.6,00.0,38.7,31.6,30.5,0000.0,0004.90,0014.58,0004.01
2022-07-11 16:41:00,,0835.5,5.01,0.00,29.8,27.7,00.0,38.6,31.5,30.5,0000.0,0004.93,0015.18,0004.01
2022-07-11 16:42:00,,0835.5,5.00,0.00,29.8,27.8,00.0,38.6,31.6,30.5,0000.0,0004.92,0015.21,0004.01
2022-07-11 16:43:00,,0835.5,5.01,0.00,29.8,27.9,00.0,38.6,31.6,30.5,0000.0,0004.92,0014.82,0004.00
2022-07-11 16:44:00,,0835.5,5.00,0.00,29.8,28.1,00.0,38.6,31.6,30.5,0000.0,0004.95,0015.03,0004.00
2022-07-11 16:45:00,,0835.5,5.00,0.00,29.8,28.2,00.0,38.6,31.6,30.5,0000.0,0004.90,0014.87,0004.00
2022-07-11 16:46:00,,0835.5,5.00,0.00,29.8,28.3,00.0,38.6,31.7,30.8,0000.0,0004.89,0014.59,0003.99
2022-07-11 16:47:00,,0835.5,5.00,0.00,29.8,28.4,00.0,38.6,31.7,30.8,0000.0,0004.92,0015.27,0003.99
2022-07-11 16:48:00,,0835.5,5.00,0.00,29.8,28.5,00.0,38.6,31.7,30.6,0000.0,0004.91,0015.94,0004.00
2022-07-11 16:49:00,,0835.5,5.01,0.00,29.9,28.6,00.0,38.6,31.7,30.4,0000.0,0004.89,0013.83,0004.00
2022-07-11 16:50:00,,0835.5,5.00,0.00,29.9,28.7,00.0,38.6,31.7,30.3,0000.0,0004.88,0014.16,0004.00
2022-07-11 16:51:00,,0835.5,4.99,0.00,29.9,28.7,00.0,38.7,31.8,30.4,0000.0,0004.85,0014.72,0004.00
2022-07-11 16:52:00,,0835.5,4.99,0.00,29.9,28.8,00.0,38.7,31.9,30.6,0000.0,0004.81,0014.97,0003.98
2022-07-11 16:53:00,,0835.5,5.02,0.00,29.9,28.9,00.0,38.7,31.9,30.4,0000.0,0004.83,0015.22,0003.99
2022-07-11 16:54:00,,0835.5,5.01,0.00,30.0,28.9,00.0,38.7,31.9,30.3,0000.0,0004.84,0015.12,0004.02
2022-07-11 16:55:00,,0835.4,5.00,0.00,30.0,29.0,00.0,38.7,31.9,30.2,0000.0,0004.84,0014.83,0004.03
2022-07-11 16:56:00,,0835.4,5.00,0.00,30.0,29.0,00.0,38.8,32.0,30.2,0000.0,0004.86,0014.77,0004.05
2022-07-11 16:57:00,,0835.5,5.00,0.00,30.0,29.0,00.0,38.8,32.0,30.1,0000.0,0004.88,0014.75,0004.08
2022-07-11 16:58:00,,0835.4,4.99,0.00,30.1,28.7,00.0,38.8,31.9,30.2,0000.0,0004.88,0014.02,0004.11
2022-07-11 16:59:00,,0835.4,5.01,0.00,30.0,27.9,00.0,38.7,31.8,30.4,0000.0,0004.91,0013.52,0004.11
